Volver al catálogo

CZ-6A DEB

ActivoSSO
NORAD 54574·DEBRIS·🇨🇳 China

Lanzado Nov 11, 2022 desde Taiyuan Satellite Launch Center

Loading…

Próximos Pases (próximas 24 horas)

TLE

ActualizadoSource: Space-Track

Época: Sep 13, 2026, 08:33 UTC

1 54574U 22151MA  26256.35643727  .00001386  00000-0  32701-3 0  9998
2 54574  98.5550 303.6576 0100906  34.2226 326.5418 14.52847641201806

Sigue CZ-6A DEB en tiempo real con AllMySat

Download on the App Store